Total_Precipitation_Accumulation
0.17 0.25 0.32 0.38 0.44 0.53 0.56 0.56 0.57 0.56 0.55 0.58 0.58 0.57 0.57 0.58 0.58 0.58 0.59 0.60 0.61 0.60 0.61 0.64 0.65 0.66 0.68 0.70 0.74 0.79 0.86 0.94 0.92 0.65 0.52 0.49 0.45 0.40 0.36 0.32 0.28 0.27 0.25
0.11 0.15 0.21 0.28 0.33 0.37 0.42 0.43 0.41 0.44 0.43 0.42 0.42 0.42 0.40 0.38 0.38 0.39 0.41 0.44 0.48 0.51 0.53 0.57 0.60 0.62 0.65 0.65 0.66 0.66 0.66 0.68 0.75 0.65 0.47 0.42 0.38 0.36 0.37 0.34 0.29 0.25 0.22
0.10 0.11 0.13 0.19 0.24 0.27 0.29 0.31 0.30 0.30 0.32 0.32 0.31 0.31 0.31 0.29 0.27 0.27 0.29 0.33 0.36 0.39 0.42 0.45 0.49 0.53 0.53 0.50 0.49 0.49 0.50 0.54 0.60 0.61 0.48 0.40 0.35 0.33 0.33 0.31 0.27 0.24 0.21
0.12 0.12 0.12 0.15 0.21 0.23 0.21 0.19 0.20 0.21 0.23 0.24 0.22 0.23 0.24 0.26 0.26 0.27 0.29 0.31 0.32 0.32 0.34 0.36 0.37 0.37 0.37 0.36 0.37 0.39 0.44 0.50 0.52 0.56 0.52 0.42 0.37 0.32 0.33 0.28 0.24 0.22 0.23
0.18 0.17 0.15 0.15 0.20 0.21 0.20 0.18 0.17 0.17 0.19 0.21 0.21 0.23 0.24 0.25 0.27 0.29 0.30 0.32 0.33 0.33 0.32 0.30 0.28 0.29 0.28 0.29 0.32 0.36 0.43 0.50 0.57 0.63 0.59 0.51 0.43 0.36 0.31 0.30 0.35 0.35 0.33
0.20 0.19 0.18 0.18 0.20 0.21 0.21 0.21 0.20 0.19 0.20 0.22 0.25 0.28 0.29 0.31 0.38 0.36 0.32 0.32 0.33 0.32 0.31 0.28 0.27 0.28 0.25 0.27 0.31 0.38 0.50 0.62 0.72 0.75 0.72 0.61 0.46 0.39 0.39 0.45 0.53 0.61 0.54
0.21 0.22 0.22 0.22 0.23 0.25 0.24 0.26 0.30 0.33 0.34 0.33 0.33 0.34 0.36 0.41 0.43 0.36 0.32 0.28 0.28 0.28 0.26 0.23 0.21 0.20 0.21 0.19 0.23 0.34 0.43 0.52 0.58 0.59 0.57 0.45 0.40 0.39 0.52 0.68 0.71 0.75 0.61
0.17 0.21 0.21 0.22 0.25 0.26 0.30 0.34 0.37 0.39 0.41 0.43 0.43 0.39 0.37 0.38 0.36 0.29 0.26 0.24 0.24 0.23 0.21 0.19 0.18 0.17 0.16 0.20 0.27 0.35 0.30 0.26 0.31 0.34 0.36 0.37 0.40 0.46 0.63 0.87 0.94 0.92 0.73
0.22 0.26 0.26 0.29 0.31 0.33 0.36 0.38 0.41 0.44 0.43 0.40 0.39 0.38 0.37 0.35 0.30 0.24 0.22 0.20 0.20 0.18 0.16 0.15 0.15 0.14 0.17 0.29 0.39 0.42 0.30 0.19 0.22 0.30 0.37 0.39 0.40 0.42 0.50 0.76 0.95 1.02 0.86
0.27 0.32 0.32 0.34 0.39 0.40 0.40 0.40 0.39 0.39 0.41 0.38 0.34 0.31 0.30 0.29 0.26 0.22 0.19 0.18 0.18 0.16 0.14 0.12 0.14 0.16 0.23 0.34 0.37 0.40 0.33 0.23 0.26 0.29 0.30 0.31 0.29 0.32 0.41 0.59 1.02 1.42 1.20
0.30 0.33 0.32 0.32 0.34 0.33 0.34 0.33 0.33 0.32 0.31 0.28 0.26 0.26 0.23 0.21 0.19 0.16 0.15 0.15 0.17 0.17 0.14 0.11 0.11 0.21 0.29 0.32 0.29 0.25 0.31 0.38 0.33 0.29 0.30 0.31 0.32 0.34 0.38 0.49 0.80 1.44 1.69
0.27 0.29 0.30 0.31 0.31 0.29 0.28 0.28 0.27 0.25 0.24 0.21 0.18 0.18 0.16 0.15 0.14 0.12 0.13 0.15 0.20 0.19 0.15 0.11 0.13 0.22 0.23 0.19 0.16 0.20 0.33 0.34 0.25 0.33 0.39 0.39 0.39 0.42 0.47 0.54 0.64 0.82 1.10
0.27 0.28 0.28 0.27 0.27 0.27 0.23 0.22 0.20 0.16 0.14 0.13 0.12 0.11 0.11 0.12 0.14 0.15 0.15 0.19 0.21 0.18 0.15 0.18 0.20 0.18 0.14 0.11 0.14 0.19 0.19 0.17 0.28 0.47 0.54 0.54 0.56 0.61 0.66 0.69 0.65 0.65 0.69
0.25 0.25 0.25 0.25 0.23 0.21 0.18 0.17 0.16 0.14 0.13 0.11 0.10 0.10 0.10 0.10 0.12 0.14 0.16 0.17 0.18 0.19 0.18 0.18 0.16 0.13 0.11 0.12 0.15 0.14 0.11 0.18 0.40 0.58 0.63 0.61 0.63 0.68 0.74 0.82 0.90 0.85 0.83
0.22 0.21 0.20 0.20 0.20 0.19 0.16 0.15 0.14 0.13 0.15 0.15 0.13 0.12 0.12 0.11 0.13 0.20 0.23 0.20 0.22 0.24 0.23 0.15 0.12 0.11 0.10 0.11 0.14 0.14 0.15 0.22 0.34 0.44 0.58 0.63 0.62 0.67 0.76 0.86 0.96 0.95 0.89
0.19 0.19 0.18 0.18 0.17 0.16 0.15 0.13 0.13 0.13 0.14 0.16 0.15 0.14 0.13 0.14 0.17 0.21 0.23 0.25 0.26 0.25 0.22 0.16 0.15 0.15 0.16 0.19 0.21 0.21 0.21 0.28 0.41 0.57 0.66 0.74 0.83 0.89 0.94 0.94 0.93 0.89 0.78
0.15 0.16 0.15 0.15 0.15 0.15 0.15 0.14 0.13 0.12 0.12 0.11 0.12 0.13 0.14 0.16 0.18 0.19 0.23 0.24 0.20 0.21 0.20 0.19 0.22 0.24 0.26 0.27 0.29 0.32 0.35 0.39 0.58 0.76 0.86 0.92 1.01 1.05 1.03 0.95 0.81 0.68 0.52
0.13 0.15 0.15 0.13 0.13 0.14 0.15 0.16 0.16 0.15 0.13 0.10 0.10 0.12 0.15 0.17 0.18 0.19 0.22 0.20 0.15 0.16 0.20 0.26 0.31 0.34 0.34 0.35 0.38 0.47 0.54 0.59 0.71 0.85 0.93 1.02 1.14 1.19 1.05 0.83 0.65 0.51 0.40
0.13 0.13 0.14 0.14 0.14 0.15 0.16 0.16 0.16 0.16 0.15 0.12 0.10 0.10 0.13 0.16 0.18 0.19 0.18 0.14 0.14 0.16 0.20 0.27 0.32 0.35 0.38 0.41 0.46 0.56 0.70 0.83 0.90 1.02 1.07 1.15 1.20 1.14 0.89 0.61 0.42 0.27 0.26
0.14 0.16 0.16 0.14 0.14 0.15 0.15 0.15 0.15 0.15 0.15 0.14 0.11 0.10 0.12 0.17 0.16 0.13 0.12 0.12 0.13 0.15 0.18 0.24 0.27 0.32 0.39 0.48 0.56 0.68 0.84 0.92 1.00 1.08 1.15 1.16 1.05 0.90 0.69 0.43 0.32 0.30 0.26
0.15 0.15 0.17 0.15 0.13 0.13 0.14 0.14 0.15 0.16 0.15 0.13 0.11 0.13 0.20 0.20 0.16 0.12 0.13 0.13 0.14 0.16 0.19 0.24 0.28 0.34 0.43 0.55 0.67 0.75 0.86 0.96 1.08 1.17 1.14 0.99 0.80 0.60 0.40 0.34 0.32 0.32 0.32
0.15 0.16 0.16 0.16 0.15 0.15 0.17 0.17 0.18 0.17 0.15 0.13 0.11 0.13 0.19 0.15 0.11 0.11 0.12 0.12 0.12 0.13 0.16 0.22 0.26 0.32 0.52 0.80 1.01 1.08 1.00 0.96 1.00 1.06 0.98 0.76 0.57 0.44 0.38 0.37 0.35 0.35 0.35
0.15 0.16 0.17 0.17 0.18 0.21 0.22 0.18 0.17 0.17 0.15 0.14 0.13 0.13 0.13 0.13 0.12 0.11 0.11 0.10 0.11 0.12 0.13 0.19 0.26 0.30 0.45 0.78 1.11 1.43 1.51 1.31 1.17 1.14 1.10 0.88 0.62 0.52 0.50 0.49 0.42 0.40 0.34
0.15 0.17 0.18 0.18 0.19 0.20 0.20 0.19 0.18 0.18 0.17 0.16 0.15 0.15 0.14 0.13 0.13 0.12 0.11 0.11 0.11 0.12 0.13 0.19 0.26 0.33 0.48 0.79 1.08 1.26 1.40 1.48 1.51 1.41 1.27 1.12 0.83 0.62 0.55 0.50 0.41 0.36 0.34
0.17 0.18 0.19 0.19 0.19 0.19 0.19 0.19 0.19 0.18 0.18 0.18 0.17 0.16 0.14 0.14 0.12 0.12 0.11 0.12 0.12 0.12 0.11 0.16 0.26 0.39 0.56 0.79 1.03 1.20 1.26 1.27 1.18 1.08 0.97 0.85 0.69 0.55 0.52 0.49 0.41 0.35 0.33
0.18 0.19 0.19 0.19 0.19 0.19 0.19 0.19 0.19 0.18 0.19 0.18 0.17 0.17 0.16 0.15 0.14 0.13 0.13 0.14 0.14 0.13 0.11 0.14 0.21 0.39 0.59 0.79 0.95 1.13 1.16 0.99 0.73 0.59 0.61 0.66 0.61 0.50 0.48 0.50 0.43 0.40 0.37